Hourly Data Report for October 05, 2014

All times are specified in Local Standard Time (LST). Add 1 hour to adjust for Daylight Saving Time where and when it is observed.

WINNIPEG A CS
MANITOBA

49°55'00.000" N
97°14'58.000" W
238.70 m
502S001
71849
XWG

Download Data

Hourly Data (October 2014)
Hourly Data Report for October 5, 2014
Temp Definition
°C
Dew Point Temp Definition
°C
Rel Hum Definition
%
Wind Dir Definition
10's deg

Wind Spd Definition
km/h
Visibility Definition
km
Stn Press Definition
kPa
Hmdx Definition


Wind Chill Definition


Weather Definition


TIME
00:00 0.0 -1.8 88 26 12   97.47   -4 LegendNANA
01:00 -0.3 -1.7 90 27 15   97.40   -5 LegendNANA
02:00 -0.2 -1.5 91 28 14   97.36   -4 LegendNANA
03:00 -1.4 -2.3 94 28 10   97.31   -5 LegendNANA
04:00 -1.4 -2.7 91 28 14   97.28   -6 LegendNANA
05:00 -1.4 -2.6 92 28 15   97.25   -6 LegendNANA
06:00 -0.8 -1.6 94 26 12   97.23   -5 LegendNANA
07:00 -0.5 -1.6 92 27 14   97.20   -5 LegendNANA
08:00 1.2 -1.0 85 28 24   97.13     LegendNANA
09:00 4.2 -0.1 74 30 31   97.09     LegendNANA
10:00 5.2 -1.8 61 31 41   97.06     LegendNANA
11:00 6.1 -2.0 56 30 39   97.03     LegendNANA
12:00 6.8 -2.8 50 31 39   97.03     LegendNANA
13:00 7.4 -3.1 47 32 45   97.01     LegendNANA
14:00 8.2 -4.7 40 32 47   97.00     LegendNANA
15:00 6.8 -3.5 48 33 42   97.03     LegendNANA
16:00 5.0 -3.2 55 33 37   97.07     LegendNANA
17:00 4.1 -2.3 63 34 31   97.08     LegendNANA
18:00 3.9 -2.2 65 34 22   97.05     LegendNANA
19:00 4.1 -2.9 61 32 21   97.00     LegendNANA
20:00 3.5 -1.8 68 29 13   96.95     LegendNANA
21:00 3.9 -0.9 71 26 12   96.88     LegendNANA
22:00 4.3 -0.3 72 25 14   96.81     LegendNANA
23:00 4.5 -1.7 64 26 16   96.71     LegendNANA

Notes on Data Quality.

Legend

  • E = Estimated
  • M = Missing
  • NA = Not Available
  • ‡ = Partner data that is not subject to review by the National Climate Archives
Date modified: